SR6WVX Weather Reports


Display with metric or nautical units.
time (UTC)temp
F
wind
direction
speed
MPH
gust
MPH
rain 1hr
in
rain 24hr
in
rain mn
in
humidity
%
barometer
mb
20190117082705 43 247 0.0 0.0 0.00 0.00 0.00 70 1000.3
20190117082205 43 225 0.0 0.0 0.00 0.00 0.00 70 1000.2
20190117081704 43 225 0.0 6.0 0.00 0.00 0.00 70 1000.3
20190117081204 43 202 0.0 8.0 0.00 0.00 0.00 70 1000.2
20190117080704 43 202 8.0 8.0 0.00 0.00 0.00 70 1000.1
20190117080204 42 202 0.0 4.0 0.00 0.00 0.00 70 1000.1
20190117075703 42 270 4.0 8.0 0.00 0.00 0.00 70 1000.0
20190117075203 42 247 8.0 8.0 0.00 0.00 0.00 71 1000.0
20190117074703 42 247 4.0 5.0 0.00 0.00 0.00 70 999.9
20190117074203 42 225 5.0 5.0 0.00 0.00 0.00 70 999.8
20190117073703 42 247 0.0 8.0 0.00 0.00 0.00 70 999.8
20190117073202 42 225 0.0 0.0 0.00 0.00 0.00 70 999.6
20190117072702 42 225 0.0 6.0 0.00 0.00 0.00 70 999.6
20190117072201 42 225 6.0 6.0 0.00 0.00 0.00 70 999.5
20190117071701 42 225 5.0 6.0 0.00 0.00 0.00 70 999.5
20190117071201 42 202 6.0 9.0 0.00 0.00 0.00 70 999.4
20190117070701 42 225 6.0 6.0 0.00 0.00 0.00 70 999.4
20190117070200 42 225 5.0 10.0 0.00 0.00 0.00 70 999.3
20190117065700 42 225 0.0 0.0 0.00 0.00 0.00 70 999.3
20190117065200 42 225 0.0 6.0 0.00 0.00 0.00 70 999.3
20190117064700 42 225 6.0 7.0 0.00 0.00 0.00 69 999.1
20190117064159 42 225 7.0 7.0 0.00 0.00 0.00 70 999.0
20190117063659 41 202 7.0 8.0 0.00 0.00 0.00 70 999.0
20190117063159 41 202 8.0 9.0 0.00 0.00 0.00 70 999.0
20190117062659 41 202 6.0 10.0 0.00 0.00 0.00 70 999.0
20190117062158 41 202 10.0 12.0 0.00 0.00 0.00 70 998.9
20190117061658 41 180 10.0 10.0 0.00 0.00 0.00 71 998.9
20190117061158 40 202 2.0 9.0 0.00 0.00 0.00 71 998.9
20190117060657 40 247 2.0 6.0 0.00 0.00 0.00 72 998.9
20190117060157 40 225 4.0 4.0 0.00 0.00 0.00 72 998.8
20190117055657 39 247 0.0 7.0 0.00 0.00 0.00 73 998.9
20190117055157 39 225 7.0 7.0 0.00 0.00 0.00 73 998.8
20190117054656 39 225 7.0 8.0 0.00 0.00 0.00 73 998.7
20190117054156 38 202 8.0 8.0 0.00 0.00 0.00 74 998.8
20190117053656 38 247 0.0 2.0 0.00 0.00 0.00 74 998.8
20190117053156 38 225 2.0 5.0 0.00 0.00 0.00 74 998.7
20190117052655 38 225 5.0 5.0 0.00 0.00 0.00 74 998.8
20190117052155 38 202 0.0 0.0 0.00 0.00 0.00 74 998.7
20190117051655 38 202 0.0 7.0 0.00 0.00 0.00 74 998.7
20190117051155 38 225 7.0 8.0 0.00 0.00 0.00 74 998.6
20190117050654 38 202 8.0 9.0 0.00 0.00 0.00 74 998.6
20190117050154 38 180 4.0 6.0 0.00 0.00 0.00 74 998.6
20190117045654 38 202 6.0 6.0 0.00 0.00 0.00 74 998.6
20190117045153 38 202 6.0 6.0 0.00 0.00 0.00 73 998.5
20190117044653 38 202 6.0 6.0 0.00 0.00 0.00 73 998.5
20190117044153 38 225 4.0 4.0 0.00 0.00 0.00 73 998.5
20190117043653 38 202 0.0 8.0 0.00 0.00 0.00 73 998.5
20190117043152 38 225 8.0 8.0 0.00 0.00 0.00 73 998.6
20190117042652 39 202 2.0 2.0 0.00 0.00 0.00 73 998.5
20190117042152 39 225 0.0 0.0 0.00 0.00 0.00 73 998.6
20190117041652 39 202 0.0 6.0 0.00 0.00 0.00 73 998.6
20190117041151 39 225 5.0 5.0 0.00 0.00 0.00 73 998.6
20190117040651 39 202 4.0 10.0 0.00 0.00 0.00 73 998.6
20190117040151 39 202 0.0 7.0 0.00 0.00 0.00 73 998.6
20190117035651 39 202 7.0 7.0 0.00 0.00 0.00 74 998.7
20190117035150 39 202 2.0 7.0 0.00 0.00 0.00 74 998.7
20190117034650 39 202 7.0 7.0 0.00 0.00 0.00 75 998.7
20190117034150 38 202 2.0 6.0 0.00 0.00 0.00 76 998.6
20190117033650 38 202 6.0 6.0 0.00 0.00 0.00 76 998.7
20190117033149 38 202 0.0 4.0 0.00 0.00 0.00 77 998.7
20190117032649 38 202 0.0 7.0 0.00 0.00 0.00 78 998.6
20190117032149 37 202 2.0 6.0 0.00 0.00 0.00 79 998.6
20190117031649 37 225 0.0 4.0 0.00 0.00 0.00 78 998.9
20190117031148 37 202 3.0 3.0 0.00 0.00 0.00 79 999.0
20190117030648 37 180 0.0 7.0 0.00 0.00 0.00 80 999.0
20190117030148 37 202 0.0 3.0 0.00 0.00 0.00 80 999.1
20190117025647 36 202 2.0 2.0 0.00 0.00 0.00 80 999.1
20190117025147 36 180 0.0 0.0 0.00 0.00 0.00 80 999.1
20190117024647 37 157 0.0 0.0 0.00 0.00 0.00 79 999.4
20190117024147 37 180 0.0 0.0 0.00 0.00 0.00 79 999.5
20190117023646 37 180 0.0 0.0 0.00 0.00 0.00 79 999.5
20190117023146 37 202 0.0 3.0 0.00 0.00 0.00 78 999.5
20190117022646 37 202 3.0 3.0 0.00 0.00 0.00 79 999.5
20190117022146 38 202 0.0 4.0 0.00 0.00 0.00 79 999.6
20190117021645 38 225 4.0 4.0 0.00 0.00 0.00 79 999.7
20190117021145 38 202 3.0 3.0 0.00 0.00 0.00 79 999.7
20190117020645 38 135 0.0 4.0 0.00 0.00 0.00 80 999.8
20190117020145 37 157 0.0 6.0 0.00 0.00 0.00 80 1000.0
20190117015644 37 225 6.0 6.0 0.00 0.00 0.00 81 999.9
20190117015144 37 202 3.0 3.0 0.00 0.00 0.00 81 999.9
20190117014644 37 157 0.0 3.0 0.00 0.00 0.00 81 1000.0
20190117014143 37 202 0.0 6.0 0.00 0.00 0.00 81 1000.0
20190117013643 36 202 0.0 0.0 0.00 0.00 0.00 81 1000.0
20190117013143 37 180 0.0 0.0 0.00 0.00 0.00 82 1000.1
20190117012643 37 202 0.0 0.0 0.00 0.00 0.00 82 1000.2
20190117012142 37 202 0.0 0.0 0.00 0.00 0.00 82 1000.2
20190117011642 36 180 0.0 0.0 0.00 0.00 0.00 82 1000.3
20190117011142 37 202 0.0 0.0 0.00 0.00 0.00 82 1000.3
20190117010642 37 202 0.0 0.0 0.00 0.00 0.00 82 1000.3
20190117010141 37 202 0.0 0.0 0.00 0.00 0.00 82 1000.5
20190117005641 37 202 0.0 2.0 0.00 0.00 0.00 81 1000.4
20190117005141 36 202 2.0 2.0 0.00 0.00 0.00 81 1000.4
20190117004641 37 157 0.0 0.0 0.00 0.00 0.00 81 1000.4
20190117004141 37 180 0.0 0.0 0.00 0.00 0.00 81 1000.6
20190117003640 37 157 0.0 3.0 0.00 0.00 0.00 81 1000.8
20190117003140 37 180 3.0 3.0 0.00 0.00 0.00 81 1000.6
20190117002640 37 202 2.0 2.0 0.00 0.00 0.00 81 1000.8
20190117002139 38 202 0.0 2.0 0.00 0.00 0.00 80 1000.8
20190117001639 38 135 0.0 0.0 0.00 0.00 0.00 80 1000.8
20190117001139 38 225 0.0 6.0 0.00 0.00 0.00 80 1000.9
20190117000638 38 202 3.0 6.0 0.00 0.00 0.00 81 1000.9
20190117000138 38 202 0.0 0.0 0.00 0.00 0.00 81 1001.0
20190116235638 38 202 0.0 1.0 0.00 0.00 0.00 81 1001.1
20190116235138 38 202 1.0 5.0 0.00 0.00 0.00 81 1001.2
20190116234637 38 202 0.0 1.0 0.00 0.00 0.00 81 1001.2
20190116234137 38 225 0.0 1.0 0.00 0.00 0.00 82 1001.3
20190116233637 38 225 1.0 6.0 0.00 0.00 0.00 82 1001.3
20190116233137 38 202 2.0 3.0 0.00 0.00 0.00 82 1001.3
20190116232636 38 202 3.0 7.0 0.00 0.00 0.00 84 1001.3
20190116232136 37 202 7.0 7.0 0.00 0.00 0.00 84 1001.5
20190116231636 37 225 0.0 1.0 0.00 0.00 0.00 85 1001.5
20190116231136 37 202 1.0 5.0 0.00 0.00 0.00 86 1001.5
20190116230635 36 202 5.0 5.0 0.00 0.00 0.00 86 1001.7
20190116230135 35 202 0.0 0.0 0.00 0.00 0.00 86 1001.5
20190116225635 35 202 0.0 0.0 0.00 0.00 0.00 86 1001.5
20190116225134 35 180 0.0 0.0 0.00 0.00 0.00 86 1001.6
20190116224634 34 180 0.0 0.0 0.00 0.00 0.00 86 1001.6
20190116224134 34 135 0.0 0.0 0.00 0.00 0.00 86 1001.8
20190116223634 34 135 0.0 0.0 0.00 0.00 0.00 86 1001.9
20190116223133 34 135 0.0 0.0 0.00 0.00 0.00 85 1001.9
20190116222633 34 135 0.0 0.0 0.00 0.00 0.00 85 1002.2
20190116222133 34 135 0.0 0.0 0.00 0.00 0.00 85 1002.3
20190116221633 34 202 0.0 0.0 0.00 0.00 0.00 85 1002.5
20190116221132 34 202 0.0 0.0 0.00 0.00 0.00 85 1002.6
20190116220632 34 180 0.0 0.0 0.00 0.00 0.00 85 1002.8
20190116220132 34 180 0.0 0.0 0.00 0.00 0.00 85 1002.6
20190116215632 34 180 0.0 0.0 0.00 0.00 0.00 85 1002.7
20190116215131 35 180 0.0 0.0 0.00 0.00 0.00 85 1003.0
20190116214631 35 180 0.0 0.0 0.00 0.00 0.00 84 1002.9
20190116214131 35 180 0.0 0.0 0.00 0.00 0.00 84 1002.9
20190116213631 35 180 0.0 0.0 0.00 0.00 0.00 84 1003.1
20190116213130 35 180 0.0 1.0 0.00 0.00 0.00 84 1003.0
20190116212630 35 157 0.0 0.0 0.00 0.00 0.00 84 1003.2
20190116212130 35 157 0.0 0.0 0.00 0.00 0.00 84 1003.1
20190116211630 36 157 0.0 0.0 0.00 0.00 0.00 84 1003.3
20190116211129 36 157 0.0 0.0 0.00 0.00 0.00 84 1003.2
20190116210629 36 157 0.0 0.0 0.00 0.00 0.00 84 1003.5
20190116210129 37 157 0.0 0.0 0.00 0.00 0.00 83 1003.8
20190116205629 37 157 0.0 0.0 0.00 0.00 0.00 83 1003.8
20190116205128 37 202 0.0 0.0 0.00 0.00 0.00 84 1003.8
20190116204628 37 202 0.0 0.0 0.00 0.00 0.00 83 1003.9
20190116204128 37 202 0.0 0.0 0.00 0.00 0.00 83 1004.0
20190116203627 37 180 0.0 3.0 0.00 0.00 0.00 83 1003.8
20190116203127 37 157 0.0 0.0 0.00 0.00 0.00 83 1003.8
20190116202627 37 202 0.0 0.0 0.00 0.00 0.00 83 1003.8
20190116202127 37 180 0.0 0.0 0.00 0.00 0.00 83 1003.9
20190116201626 37 202 0.0 0.0 0.00 0.00 0.00 82 1004.2
20190116201126 38 202 0.0 0.0 0.00 0.00 0.00 82 1004.2
20190116200626 38 202 0.0 0.0 0.00 0.00 0.00 82 1004.4
20190116200126 38 202 0.0 0.0 0.00 0.00 0.00 82 1004.2
20190116195625 38 202 0.0 7.0 0.00 0.00 0.00 82 1004.2
20190116195125 38 202 6.0 6.0 0.00 0.00 0.00 82 1004.4
20190116194625 38 202 6.0 6.0 0.00 0.00 0.00 82 1004.2
20190116194125 39 202 6.0 6.0 0.00 0.00 0.00 82 1004.4
20190116193624 39 225 5.0 5.0 0.00 0.00 0.00 82 1004.3
20190116193124 39 202 4.0 7.0 0.00 0.00 0.00 82 1004.4
20190116192624 39 202 0.0 4.0 0.00 0.00 0.00 81 1004.4
20190116192124 39 202 0.0 5.0 0.00 0.00 0.00 81 1004.5
20190116191623 39 202 5.0 5.0 0.00 0.00 0.00 81 1004.6
20190116191123 40 180 3.0 3.0 0.00 0.00 0.00 80 1004.5
20190116190623 40 225 0.0 7.0 0.00 0.00 0.00 80 1004.6
20190116190122 41 225 7.0 7.0 0.00 0.00 0.00 80 1004.6
20190116185622 41 225 0.0 6.0 0.00 0.00 0.00 80 1004.8
20190116185122 41 225 3.0 3.0 0.00 0.00 0.00 80 1004.8
20190116184622 41 225 0.0 6.0 0.00 0.00 0.00 80 1005.0
20190116184121 41 247 6.0 6.0 0.00 0.00 0.00 80 1005.0
20190116183621 41 202 3.0 9.0 0.00 0.00 0.00 81 1005.1
20190116183121 41 225 4.0 4.0 0.00 0.00 0.00 81 1005.2
20190116182621 41 225 1.0 9.0 0.00 0.00 0.00 81 1005.2
20190116182120 41 225 9.0 9.0 0.00 0.00 0.00 81 1005.2
20190116181620 41 202 0.0 2.0 0.00 0.00 0.00 81 1005.2
20190116181120 41 202 0.0 5.0 0.00 0.00 0.00 80 1005.2
20190116180619 41 225 0.0 5.0 0.00 0.00 0.00 81 1005.2
20190116180120 42 225 0.0 3.0 0.00 0.00 0.00 80 1005.3
20190116175619 42 202 0.0 3.0 0.00 0.00 0.00 80 1005.2
20190116175119 42 180 3.0 5.0 0.00 0.00 0.00 80 1005.4
20190116174618 42 157 0.0 3.0 0.00 0.00 0.00 80 1005.4
20190116174118 42 202 3.0 4.0 0.00 0.00 0.00 80 1005.3
20190116173618 42 202 0.0 8.0 0.00 0.00 0.00 80 1005.4
20190116173118 42 225 8.0 8.0 0.00 0.00 0.00 80 1005.5
20190116172617 42 225 4.0 4.0 0.00 0.00 0.00 80 1005.5
20190116172117 43 202 2.0 2.0 0.00 0.00 0.00 80 1005.6
20190116171617 43 180 0.0 1.0 0.00 0.00 0.00 80 1005.6
20190116171117 43 180 0.0 1.0 0.00 0.00 0.00 80 1005.7
20190116170616 43 202 1.0 6.0 0.00 0.00 0.00 80 1005.7
20190116170116 43 225 4.0 4.0 0.00 0.00 0.00 80 1005.8
20190116165616 43 202 2.0 6.0 0.00 0.00 0.00 80 1005.9
20190116165115 43 202 4.0 4.0 0.00 0.00 0.00 80 1005.9
20190116164615 43 202 0.0 0.0 0.00 0.00 0.00 80 1005.9
20190116164115 43 202 0.0 7.0 0.00 0.00 0.00 80 1005.9
20190116163615 43 180 2.0 2.0 0.00 0.00 0.00 80 1005.8
20190116163114 43 225 0.0 1.0 0.00 0.00 0.00 80 1005.9
20190116162614 43 225 1.0 3.0 0.00 0.00 0.00 80 1005.9
20190116162114 43 247 3.0 3.0 0.00 0.00 0.00 80 1005.9
20190116161614 43 202 0.0 0.0 0.00 0.00 0.00 80 1006.0
20190116161113 43 225 0.0 3.0 0.00 0.00 0.00 80 1005.9
20190116160614 43 225 1.0 1.0 0.00 0.00 0.00 80 1006.0
20190116160113 43 247 0.0 0.0 0.00 0.00 0.00 80 1006.1
20190116155613 43 225 0.0 4.0 0.00 0.00 0.00 80 1006.1
20190116155112 43 225 4.0 4.0 0.00 0.00 0.00 80 1006.1
20190116154612 43 202 0.0 8.0 0.00 0.00 0.00 81 1006.1
20190116154112 43 247 8.0 8.0 0.00 0.00 0.00 81 1006.2
20190116153612 43 225 5.0 6.0 0.00 0.00 0.00 81 1006.3
20190116153112 43 247 6.0 6.0 0.00 0.00 0.00 81 1006.4
20190116152611 43 247 0.0 3.0 0.00 0.00 0.00 80 1006.4
20190116152111 43 225 3.0 4.0 0.00 0.00 0.00 81 1006.3
20190116151611 43 202 1.0 3.0 0.00 0.00 0.00 81 1006.3
20190116151110 43 202 3.0 4.0 0.00 0.00 0.00 80 1006.4
20190116150610 43 247 0.0 0.0 0.00 0.00 0.00 81 1006.4
20190116150110 43 247 0.0 3.0 0.00 0.00 0.00 81 1006.5
20190116145609 43 225 3.0 6.0 0.00 0.00 0.00 81 1006.4
20190116145109 43 225 0.0 3.0 0.00 0.00 0.00 81 1006.3
20190116144609 43 247 0.0 6.0 0.00 0.00 0.00 80 1006.4
20190116144109 44 247 3.0 8.0 0.00 0.00 0.00 80 1006.4
20190116143608 44 225 8.0 8.0 0.00 0.00 0.00 80 1006.4
20190116143108 44 225 5.0 5.0 0.00 0.00 0.00 80 1006.3
20190116142608 44 270 2.0 2.0 0.00 0.00 0.00 81 1006.4
20190116142108 44 225 0.0 4.0 0.00 0.00 0.00 81 1006.4
20190116141607 44 225 0.0 1.0 0.00 0.00 0.00 81 1006.4
20190116141107 44 180 0.0 7.0 0.00 0.00 0.00 81 1006.4
20190116140607 44 225 7.0 7.0 0.00 0.00 0.00 81 1006.4
20190116140107 44 202 3.0 7.0 0.00 0.00 0.00 81 1006.5
20190116135606 44 202 7.0 7.0 0.00 0.00 0.00 80 1006.4
20190116135106 44 202 1.0 1.0 0.00 0.00 0.00 81 1006.4
20190116134606 44 247 0.0 0.0 0.00 0.00 0.00 81 1006.5
20190116134106 44 247 0.0 6.0 0.00 0.00 0.00 81 1006.5
20190116133605 44 225 0.0 4.0 0.00 0.00 0.00 81 1006.5
20190116133105 44 247 4.0 4.0 0.00 0.00 0.00 81 1006.7
20190116132605 44 202 0.0 0.0 0.00 0.00 0.00 81 1006.6
20190116132104 44 225 0.0 0.0 0.00 0.00 0.00 81 1006.6
20190116131604 44 225 0.0 0.0 0.00 0.00 0.00 81 1006.7
20190116131104 44 225 0.0 4.0 0.00 0.00 0.00 80 1006.8
20190116130604 44 247 0.0 5.0 0.00 0.00 0.00 81 1006.7
20190116130103 44 202 5.0 5.0 0.00 0.00 0.00 80 1006.8
20190116125603 44 247 0.0 0.0 0.00 0.00 0.00 80 1006.8
20190116125103 44 202 0.0 0.0 0.00 0.00 0.00 80 1006.8
20190116124603 44 202 0.0 6.0 0.00 0.00 0.00 80 1006.9
20190116124103 44 247 0.0 1.0 0.00 0.00 0.00 80 1006.8
20190116123602 45 247 0.0 6.0 0.00 0.00 0.00 79 1007.0
20190116123102 45 247 0.0 0.0 0.00 0.00 0.00 80 1007.1
20190116122602 45 0 0.0 4.0 0.00 0.00 0.00 80 1006.9
20190116122101 45 180 4.0 4.0 0.00 0.00 0.00 80 1007.0
20190116121601 44 315 3.0 4.0 0.00 0.00 0.00 80 1007.0
20190116121101 45 292 0.0 4.0 0.00 0.00 0.00 80 1007.1
20190116120600 45 225 4.0 8.0 0.00 0.00 0.00 80 1007.1
20190116120100 45 225 8.0 8.0 0.00 0.00 0.00 80 1007.1
20190116115600 45 247 5.0 5.0 0.00 0.00 0.00 81 1007.1
20190116115100 45 247 0.0 6.0 0.00 0.00 0.00 80 1007.2
20190116114559 45 337 6.0 7.0 0.00 0.00 0.00 80 1007.2
20190116114059 45 270 7.0 7.0 0.00 0.00 0.00 80 1007.3
20190116113559 45 270 6.0 6.0 0.00 0.00 0.00 80 1007.2
20190116113059 45 247 2.0 6.0 0.00 0.00 0.00 81 1007.2
20190116112558 45 315 6.0 14.0 0.00 0.00 0.00 81 1007.3
20190116112058 45 225 14.0 14.0 0.00 0.00 0.00 80 1007.3
20190116111558 45 225 6.0 8.0 0.00 0.00 0.00 81 1007.4
20190116111058 44 225 8.0 8.0 0.00 0.00 0.00 81 1007.3
20190116110557 44 225 3.0 9.0 0.00 0.00 0.00 81 1007.4
20190116110057 44 247 5.0 5.0 0.00 0.00 0.00 81 1007.5
20190116105557 45 247 4.0 7.0 0.00 0.00 0.00 81 1007.5
20190116105057 45 225 4.0 5.0 0.00 0.00 0.00 80 1007.5
20190116104556 45 247 5.0 5.0 0.00 0.00 0.00 80 1007.6
20190116104056 46 247 0.0 4.0 0.00 0.00 0.00 80 1007.7
20190116103556 46 225 0.0 8.0 0.00 0.00 0.00 80 1007.7
20190116103056 46 225 8.0 8.0 0.00 0.00 0.00 80 1007.8
20190116102555 46 292 7.0 7.0 0.00 0.00 0.00 80 1007.8
20190116102055 46 292 7.0 13.0 0.00 0.00 0.00 81 1007.9
20190116101555 46 202 13.0 13.0 0.00 0.00 0.00 82 1008.0
20190116101054 46 225 0.0 0.0 0.00 0.00 0.00 83 1007.9
20190116100554 45 247 0.0 2.0 0.00 0.00 0.00 83 1008.0
20190116100054 45 247 1.0 4.0 0.00 0.00 0.00 83 1007.9
20190116095554 45 247 0.0 4.0 0.00 0.00 0.00 83 1007.9
20190116095053 45 247 4.0 4.0 0.00 0.00 0.00 84 1007.9
20190116094053 45 202 0.0 5.0 0.00 0.04 0.00 85 1008.0
20190116093553 44 225 0.0 12.0 0.00 0.04 0.00 86 1008.0
20190116093052 44 315 12.0 12.0 0.00 0.04 0.00 87 1008.0
20190116092552 44 202 6.0 6.0 0.00 0.04 0.00 87 1008.0
20190116092052 44 202 0.0 6.0 0.00 0.04 0.00 87 1008.0
20190116091552 44 225 6.0 6.0 0.00 0.04 0.00 87 1008.2
20190116091051 44 247 0.0 6.0 0.00 0.04 0.00 88 1008.1
20190116090551 44 247 0.0 4.0 0.00 0.04 0.00 88 1007.8
20190116090051 43 247 4.0 4.0 0.00 0.04 0.00 89 1007.8
20190116085550 43 247 0.0 5.0 0.00 0.04 0.00 89 1007.8
20190116085050 43 247 5.0 5.0 0.00 0.04 0.00 89 1007.8
20190116084550 43 225 0.0 0.0 0.00 0.04 0.00 90 1007.7
20190116084050 43 225 0.0 0.0 0.00 0.04 0.00 90 1007.7
20190116083549 42 247 0.0 0.0 0.00 0.04 0.00 90 1007.7
20190116083049 43 247 0.0 0.0 0.00 0.04 0.00 90 1007.8